Regional Weather Roundup
Issued by NWS

Home | Current Version | Previous Version | Graphics & Text | Print | Product List | Glossary On
Versions: 1 2 3 4 5 6 7 8 9 10 11 12 13 14 15 16 17 18 19 20 21 22 23 24 25 26 27 28 29 30 31 32 33 34 35 36 37 38 39 40 41 42 43 44 45 46 47 48 49 50
000
ASUS43 KMKX 010400
RWRWI

WISCONSIN REGIONAL WEATHER ROUNDUP
NATIONAL WEATHER SERVICE MILWAUKEE/SULLIVAN WI
1100 PM CDT FRI JUL 31 2015

NOTE: "FAIR" INDICATES FEW OR NO CLOUDS BELOW 12,000 FEET WITH NO
SIGNIFICANT WEATHER AND/OR OBSTRUCTIONS TO VISIBILITY.

WIZ001-002-006>008-014>016-023>028-010500-
NORTHWEST WISCONSIN

CITY           SKY/WX    TMP DP  RH WIND       PRES   REMARKS
SUPERIOR ARPT  CLEAR     63  52  68 W6        29.93S
ASHLAND        CLEAR     54  53  97 SW6       29.92S
HAYWARD        CLEAR     57  51  80 CALM      29.97R
SIREN          PTCLDY    63  52  68 CALM      29.98R
CUMBERLAND     CLEAR     59  52  77 W5        29.98S
RICE LAKE      CLEAR     57  55  91 CALM      29.99S
CHETEK         CLEAR     62  55  80 CALM      29.97S
LADYSMITH      CLEAR     64  54  69 SW5       29.98S
EAU CLAIRE     NOT AVBL
MENOMONIE      CLEAR     64  53  67 SW6       29.99R
NEW RICHMOND   PTCLDY    66  54  66 W7        29.99S
OSCEOLA        CLEAR     65  56  72 SW3       30.01S
$$

WIZ003>005-009-010-017-018-010500-
NORTH CENTRAL WISCONSIN

CITY           SKY/WX    TMP DP  RH WIND       PRES   REMARKS
MANITOWISH WTR MOCLDY    55  55 100 CALM      29.94S
ARBOR VITAE    MOCLDY    59  57  93 CALM      29.95R
WOODRUFF       MOCLDY    59  57  93 CALM      29.95R
RHINELANDER    CLEAR     54  52  93 W6        29.96S
EAGLE RIVER    PTCLDY    53  53  99 CALM      29.94S
LAND O LAKES   PTCLDY    58  55  87 CALM      29.94S
PHILLIPS       CLEAR     59  55  86 CALM      29.96R
TOMAHAWK       CLEAR     53  52  96 CALM      29.96S
MEDFORD        CLEAR     62  53  70 W6        29.97S
MERRILL        NOT AVBL
$$

WIZ029-030-035-036-043>047-010500-
CENTRAL WISCONSIN

CITY           SKY/WX    TMP DP  RH WIND       PRES   REMARKS
WAUSAU         CLEAR     64  56  75 SW5       29.95S
MOSINEE        CLEAR     59  55  88 CALM      29.98R
MARSHFIELD     CLEAR     63  50  62 W7        29.98R
STEVENS POINT  CLEAR     59  53  81 CALM      29.98R
WAUPACA        PTCLDY    65  56  72 CALM      29.96S
WAUTOMA        NOT AVBL
WISC RAPIDS    CLEAR     65  51  60 W8        29.98S
CAMP DOUGLAS   NOT AVBL
$$

WIZ011>013-019>022-031-037>040-048>050-010500-
NORTHEAST WISCONSIN

CITY           SKY/WX    TMP DP  RH WIND       PRES   REMARKS
ANTIGO         MOCLDY    55  55  98 CALM      29.96S
SHAWANO        PTCLDY    65  56  72 W5        29.94S
OCONTO         CLEAR     63  54  72 CALM      29.91S
STURGEON BAY   PTCLDY    66  52  59 W6        29.93S
GREEN BAY      MOCLDY    63  56  78 W6        29.93S
MANITOWOC      NOT AVBL
APPLETON       MOCLDY    66  54  63 VRB5      29.96S
CLINTONVILLE   MOCLDY    63  54  72 W5        29.94S
OSHKOSH        CLOUDY    68  54  60 W3        29.95S
$$

WIZ032>034-041-042-053>061-010500-
SOUTHWEST WISCONSIN

CITY           SKY/WX    TMP DP  RH WIND       PRES   REMARKS
LA CROSSE      CLEAR     65  57  75 E3        29.99S
SPARTA         CLEAR     57  51  81 CALM      30.00S
VIROQUA        CLEAR     64  52  65 W6        30.02S
BOSCOBEL       CLEAR     60  57  89 CALM      30.01R
PRAIRIE DU CHI CLEAR     65  56  73 CALM      30.01S
PLATTEVILLE    CLEAR     65  55  72 W6        30.03R
$$

WIZ056-057-062-063-064-067-068-010500-
SOUTH CENTRAL WISCONSIN

CITY           SKY/WX    TMP DP  RH WIND       PRES   REMARKS
REEDSBURG      CLEAR     64  53  66 CALM      29.99S
BARABOO/DELLS  CLEAR     62  50  66 CALM      29.99S
LONE ROCK      NOT AVBL
MINERAL POINT  CLEAR     64  54  68 W3        30.02S
MADISON        CLEAR     67  51  56 W5        29.99R
MIDDLETON      CLEAR     60  55  84 CALM      30.00S
WATERTOWN      CLEAR     62  54  73 CALM      29.98R
MONROE         CLEAR     70  52  52 W7        30.01R
JANESVILLE     CLEAR     64  52  63 CALM      29.99R
$$

WIZ051-052-058>065-066-070>072-010500-
SOUTHEAST WISCONSIN

CITY           SKY/WX    TMP DP  RH WIND       PRES   REMARKS
MILWAUKEE      PTCLDY    73  50  44 W8        29.96R
WAUKESHA       CLEAR     64  50  59 W6        29.99R
MILWAUKEE/TIMM CLEAR     68  48  49 W7        29.97S
RACINE         CLEAR     70  50  49 W5        29.98R
BURLINGTON     CLEAR     63  51  65 W5        29.98S
KENOSHA        CLEAR     62  52  69 W7        29.98R
FOND DU LAC    MOCLDY    66  53  63 W6        29.96S
SHEBOYGAN      CLOUDY    69  55  60 NW7       29.95R
WEST BEND      PTCLDY    64  50  59 W5        29.97R
JUNEAU         CLEAR     65  53  63 W3        29.98S
$$

LSZ147-162-010500-
LAKE SUPERIOR

STATION/POSITION TIME  TEMP    WIND        PRES    WAVE
                       AIR SEA DIR/SP/G            HT/PER
                 (UTC) (F)     (DEG/KT/KT) (MB)    (FT/S)
W MID LAKE BUOY  0250   59 53  260/ 14/ 16 1011.3R   1/ 3
DEVILS ISLAND    0300   64     210/  7/  9 1012.5R
PORT WING        0340   69     260/ 10/ 15 1012.9R
SAXON HARBOR     0340   62                 1012.5R
$$

LMZ867-665-643>646-010500-
LAKE MICHIGAN

STATION/POSITION TIME  TEMP    WIND        PRES    WAVE
                       AIR SEA DIR/SP/G            HT/PER
                 (UTC) (F)     (DEG/KT/KT) (MB)    (FT/S)
CHAMBERS ISLAND  0300   70     240/  4/  8 1012.2R
S GREEN BAY BUOY 0300   68 71  280/  8/ 10 1014.3
N MID LAKE BUOY  0250   69 68  310/  4/  4 1011.0R   1/ 3
NORTHPORT PIER   0300   72     290/  6/ 10 1011.9R
SISTER BAY       0344   72     310/ 16/ 18   N/A
ALGOMA LAKESHORE 0312          330/  2/  6   N/A
KEWAUNEE LAKESHO 0300   68     300/  4/  7 1012.6R
SHEBOYGAN LAKESH 0300   73     300/  9/ 10 1013.7R
PORT WASHINGTON  0340   72     290/  4/  7 1014.6R
ATWATER BUOY     0300   73 68  270/  8/ 10 1015.6R
MILWAUKEE LAKESH 0300   75     290/  7/ 10   N/A
KENOSHA   LAKESH 0300   74     280/  8/ 12 1013.9R
$$

TC  - TEMPERATURE IN CELSIUS
VSB - VISIBILITY IN STATUTE MILES
WCI - WIND CHILL INDEX
HX  - HEAT INDEX




USA.gov is the U.S. government's official web portal to all federal, state and local government web resources and services.